Time,TemperatureF,DewpointF,PressureIn,WindDirection,WindDirectionDegrees,WindSpeedMPH,WindSpeedGustMPH,Humidity,HourlyPrecipIn,Conditions,Clouds,dailyrainin,SoftwareType,DateUTC
2013-05-12 00:02:00,45.1,15.6,17.72,South,186,0.0,0.0,30,0.00,,,0.00,WeatherTracker,2013-05-12 07:02:00,
2013-05-12 00:10:00,45.1,15.6,17.72,South,186,0.0,0.0,30,0.00,,,0.00,WeatherTracker,2013-05-12 07:10:00,
2013-05-12 00:15:00,44.8,15.3,17.72,South,186,0.0,0.0,30,0.00,,,0.00,WeatherTracker,2013-05-12 07:15:00,
2013-05-12 00:20:00,44.6,15.1,17.72,South,186,0.0,0.0,30,0.00,,,0.00,WeatherTracker,2013-05-12 07:20:00,
2013-05-12 00:26:00,44.6,15.1,17.72,South,186,0.0,0.0,30,0.00,,,0.00,WeatherTracker,2013-05-12 07:26:00,
2013-05-12 00:35:00,44.2,15.5,17.72,South,186,0.0,0.0,31,0.00,,,0.00,WeatherTracker,2013-05-12 07:35:00,
2013-05-12 00:41:00,44.2,15.5,17.72,South,186,0.0,0.0,31,0.00,,,0.00,WeatherTracker,2013-05-12 07:41:00,
2013-05-12 00:50:00,43.7,15.8,17.72,South,186,0.0,0.0,32,0.00,,,0.00,WeatherTracker,2013-05-12 07:50:00,
2013-05-12 00:55:00,43.3,15.5,17.72,South,186,0.0,0.0,32,0.00,,,0.00,WeatherTracker,2013-05-12 07:55:00,
2013-05-12 01:00:00,43.2,16.0,17.72,South,186,0.0,0.0,33,0.00,,,0.00,WeatherTracker,2013-05-12 08:00:00,
2013-05-12 01:06:00,43.0,15.9,17.72,South,186,0.0,0.0,33,0.00,,,0.00,WeatherTracker,2013-05-12 08:06:00,
2013-05-12 01:10:00,43.0,15.9,17.72,South,186,0.0,0.0,33,0.00,,,0.00,WeatherTracker,2013-05-12 08:10:00,
2013-05-12 01:15:00,43.0,15.9,17.72,South,186,0.0,0.0,33,0.00,,,0.00,WeatherTracker,2013-05-12 08:15:00,
2013-05-12 01:20:00,42.6,16.2,17.72,South,186,0.0,0.0,34,0.00,,,0.00,WeatherTracker,2013-05-12 08:20:00,
2013-05-12 01:30:00,42.3,15.9,17.72,South,186,0.0,0.0,34,0.00,,,0.00,WeatherTracker,2013-05-12 08:30:00,
2013-05-12 01:36:00,42.3,16.6,17.72,South,186,0.0,0.0,35,0.00,,,0.00,WeatherTracker,2013-05-12 08:36:00,
2013-05-12 01:45:00,42.1,16.4,17.72,South,186,0.0,0.0,35,0.00,,,0.00,WeatherTracker,2013-05-12 08:45:00,
2013-05-12 01:50:00,42.3,16.6,17.72,South,186,0.0,0.0,35,0.00,,,0.00,WeatherTracker,2013-05-12 08:50:00,
2013-05-12 02:00:00,42.1,16.4,17.72,South,186,0.0,0.0,35,0.00,,,0.00,WeatherTracker,2013-05-12 09:00:00,
2013-05-12 02:05:00,42.1,17.1,17.72,South,186,0.0,0.0,36,0.00,,,0.00,WeatherTracker,2013-05-12 09:05:00,
2013-05-12 02:10:00,41.9,16.9,17.72,South,186,0.0,0.0,36,0.00,,,0.00,WeatherTracker,2013-05-12 09:10:00,
2013-05-12 02:15:00,41.5,16.6,17.72,South,186,0.0,0.0,36,0.00,,,0.00,WeatherTracker,2013-05-12 09:15:00,
2013-05-12 02:21:00,41.5,17.2,17.72,South,186,0.0,0.0,37,0.00,,,0.00,WeatherTracker,2013-05-12 09:21:00,
2013-05-12 02:30:00,41.5,17.2,17.72,SW,233,0.0,0.0,37,0.00,,,0.00,WeatherTracker,2013-05-12 09:30:00,
2013-05-12 02:35:00,41.7,18.0,17.72,SW,233,0.0,0.0,38,0.00,,,0.00,WeatherTracker,2013-05-12 09:35:00,
2013-05-12 02:40:00,42.1,18.3,17.72,SW,233,0.0,0.0,38,0.00,,,0.00,WeatherTracker,2013-05-12 09:40:00,
2013-05-12 02:46:00,41.9,18.2,17.72,SW,233,0.0,0.0,38,0.00,,,0.00,WeatherTracker,2013-05-12 09:46:00,
2013-05-12 02:55:00,41.4,17.7,17.72,SW,233,0.0,0.0,38,0.00,,,0.00,WeatherTracker,2013-05-12 09:55:00,
2013-05-12 03:01:00,41.2,17.5,17.72,SW,233,0.0,0.0,38,0.00,,,0.00,WeatherTracker,2013-05-12 10:01:00,
2013-05-12 03:11:00,41.0,17.4,17.72,SW,231,0.0,0.0,38,0.00,,,0.00,WeatherTracker,2013-05-12 10:11:00,
2013-05-12 03:20:00,40.6,17.6,17.72,SW,231,0.0,0.0,39,0.00,,,0.00,WeatherTracker,2013-05-12 10:20:00,
2013-05-12 03:25:00,40.5,17.5,17.72,SW,231,0.0,0.0,39,0.00,,,0.00,WeatherTracker,2013-05-12 10:25:00,
2013-05-12 03:31:00,40.3,17.3,17.72,SW,231,0.0,0.0,39,0.00,,,0.00,WeatherTracker,2013-05-12 10:31:00,
2013-05-12 03:41:00,40.3,17.3,17.72,SW,231,0.0,0.0,39,0.00,,,0.00,WeatherTracker,2013-05-12 10:41:00,
2013-05-12 03:46:00,40.1,17.2,17.72,SW,228,0.0,0.0,39,0.00,,,0.00,WeatherTracker,2013-05-12 10:46:00,
2013-05-12 03:56:00,39.7,16.8,17.72,SW,228,0.0,0.0,39,0.00,,,0.00,WeatherTracker,2013-05-12 10:56:00,
2013-05-12 04:06:00,39.6,16.7,17.72,SW,228,0.0,0.0,39,0.00,,,0.00,WeatherTracker,2013-05-12 11:06:00,
2013-05-12 04:16:00,39.2,16.3,17.72,SW,228,0.0,0.0,39,0.00,,,0.00,WeatherTracker,2013-05-12 11:16:00,
2013-05-12 04:25:00,38.8,16.6,17.72,SW,228,0.0,0.0,40,0.00,,,0.00,WeatherTracker,2013-05-12 11:25:00,
2013-05-12 04:31:00,38.5,16.3,17.72,SW,228,0.0,0.0,40,0.00,,,0.00,WeatherTracker,2013-05-12 11:31:00,
2013-05-12 04:41:00,38.1,16.0,17.72,SW,228,0.0,0.0,40,0.00,,,0.00,WeatherTracker,2013-05-12 11:41:00,
2013-05-12 04:50:00,37.9,16.4,17.72,SW,228,0.0,0.0,41,0.00,,,0.00,WeatherTracker,2013-05-12 11:50:00,
2013-05-12 04:56:00,38.1,16.5,17.72,SW,228,0.0,0.0,41,0.00,,,0.00,WeatherTracker,2013-05-12 11:56:00,
2013-05-12 05:05:00,38.1,16.5,17.72,SW,228,0.0,0.0,41,0.00,,,0.00,WeatherTracker,2013-05-12 12:05:00,
2013-05-12 05:11:00,38.1,16.5,17.72,SW,228,0.0,0.0,41,0.00,,,0.00,WeatherTracker,2013-05-12 12:11:00,
2013-05-12 05:15:00,38.3,16.7,17.72,SW,228,0.0,0.0,41,0.00,,,0.00,WeatherTracker,2013-05-12 12:15:00,
2013-05-12 05:21:00,38.3,16.7,17.72,SW,228,0.0,0.0,41,0.00,,,0.00,WeatherTracker,2013-05-12 12:21:00,
2013-05-12 05:26:00,37.9,16.4,17.72,South,187,0.0,0.0,41,0.00,,,0.00,WeatherTracker,2013-05-12 12:26:00,
2013-05-12 05:35:00,37.4,15.9,17.72,SSW,205,0.0,0.0,41,0.00,,,0.00,WeatherTracker,2013-05-12 12:35:00,
2013-05-12 05:41:00,37.4,16.4,17.72,SSW,205,0.0,0.0,42,0.00,,,0.00,WeatherTracker,2013-05-12 12:41:00,
2013-05-12 05:50:00,37.9,16.4,17.72,SSW,205,0.0,0.0,41,0.00,,,0.00,WeatherTracker,2013-05-12 12:50:00,
2013-05-12 05:56:00,37.8,16.8,17.72,SSW,200,0.0,0.0,42,0.00,,,0.00,WeatherTracker,2013-05-12 12:56:00,
2013-05-12 06:01:00,37.6,16.6,17.72,SSW,201,0.0,0.0,42,0.00,,,0.00,WeatherTracker,2013-05-12 13:01:00,
2013-05-12 06:10:00,37.4,16.4,17.72,SSW,201,0.0,0.0,42,0.00,,,0.00,WeatherTracker,2013-05-12 13:10:00,
2013-05-12 06:16:00,37.6,16.6,17.72,SSW,201,0.0,0.0,42,0.00,,,0.00,WeatherTracker,2013-05-12 13:16:00,
2013-05-12 06:26:00,38.1,17.1,17.72,SSW,201,0.0,0.0,42,0.00,,,0.00,WeatherTracker,2013-05-12 13:26:00,
2013-05-12 06:35:00,38.8,17.7,17.72,SSW,201,0.0,0.0,42,0.00,,,0.00,WeatherTracker,2013-05-12 13:35:00,
2013-05-12 06:41:00,39.6,18.4,17.72,SSW,201,0.0,0.0,42,0.00,,,0.00,WeatherTracker,2013-05-12 13:41:00,
2013-05-12 06:50:00,40.6,19.4,17.72,SSW,201,0.0,0.0,42,0.00,,,0.00,WeatherTracker,2013-05-12 13:50:00,
2013-05-12 06:56:00,41.2,19.3,17.72,SSW,200,0.0,0.0,41,0.00,,,0.00,WeatherTracker,2013-05-12 13:56:00,
2013-05-12 07:06:00,42.6,20.6,17.72,SSW,201,0.0,0.0,41,0.00,,,0.00,WeatherTracker,2013-05-12 14:06:00,
2013-05-12 07:11:00,43.3,21.2,17.72,SSW,201,0.0,0.0,41,0.00,,,0.00,WeatherTracker,2013-05-12 14:11:00,
2013-05-12 07:16:00,44.2,22.0,17.72,SSW,201,0.0,0.0,41,0.00,,,0.00,WeatherTracker,2013-05-12 14:16:00,
2013-05-12 07:25:00,46.2,23.2,17.72,SSW,201,0.0,0.0,40,0.00,,,0.00,WeatherTracker,2013-05-12 14:25:00,
2013-05-12 07:31:00,47.1,23.4,17.72,SSW,201,0.0,0.0,39,0.00,,,0.00,WeatherTracker,2013-05-12 14:31:00,
2013-05-12 07:36:00,48.2,24.4,17.72,SSW,201,0.0,0.0,39,0.00,,,0.00,WeatherTracker,2013-05-12 14:36:00,
2013-05-12 07:46:00,50.0,25.4,17.72,SSW,201,0.0,0.0,38,0.00,,,0.00,WeatherTracker,2013-05-12 14:46:00,
2013-05-12 07:51:00,51.3,25.9,17.72,SSW,201,0.0,0.0,37,0.00,,,0.00,WeatherTracker,2013-05-12 14:51:00,
2013-05-12 08:01:00,53.8,21.5,17.72,SSW,195,0.0,0.0,28,0.00,,,0.00,WeatherTracker,2013-05-12 15:01:00,
2013-05-12 08:10:00,55.6,23.0,17.72,SSE,149,0.0,0.0,28,0.00,,,0.00,WeatherTracker,2013-05-12 15:10:00,
2013-05-12 08:16:00,56.3,22.8,17.72,South,173,0.0,0.0,27,0.00,,,0.00,WeatherTracker,2013-05-12 15:16:00,
2013-05-12 08:21:00,56.7,23.1,17.72,South,180,0.0,0.0,27,0.00,,,0.00,WeatherTracker,2013-05-12 15:21:00,
2013-05-12 08:26:00,57.6,22.9,17.72,SSE,166,0.0,2.0,26,0.00,,,0.00,WeatherTracker,2013-05-12 15:26:00,
2013-05-12 08:36:00,58.6,22.9,17.72,South,170,0.0,0.0,25,0.00,,,0.00,WeatherTracker,2013-05-12 15:36:00,
2013-05-12 08:45:00,60.3,21.3,17.72,SE,134,3.0,3.0,22,0.00,,,0.00,WeatherTracker,2013-05-12 15:45:00,
2013-05-12 08:51:00,61.0,20.8,17.72,SSE,159,4.0,4.0,21,0.00,,,0.00,WeatherTracker,2013-05-12 15:51:00,
2013-05-12 09:01:00,61.9,19.2,17.72,ESE,103,0.0,0.0,19,0.00,,,0.00,WeatherTracker,2013-05-12 16:01:00,
2013-05-12 09:10:00,62.8,15.9,17.72,North,4,0.0,0.0,16,0.00,,,0.00,WeatherTracker,2013-05-12 16:10:00,
2013-05-12 09:16:00,63.5,16.5,17.72,South,180,3.0,3.0,16,0.00,,,0.00,WeatherTracker,2013-05-12 16:16:00,
2013-05-12 09:21:00,64.0,17.0,17.72,NNE,15,3.0,0.0,16,0.00,,,0.00,WeatherTracker,2013-05-12 16:21:00,
2013-05-12 09:31:00,65.3,13.2,17.72,North,357,0.0,0.0,13,0.00,,,0.00,WeatherTracker,2013-05-12 16:31:00,
2013-05-12 09:40:00,66.6,12.4,17.72,ESE,106,3.0,6.0,12,0.00,,,0.00,WeatherTracker,2013-05-12 16:40:00,
2013-05-12 09:45:00,67.1,12.8,17.72,NW,316,4.0,5.0,12,0.00,,,0.00,WeatherTracker,2013-05-12 16:45:00,
2013-05-12 09:51:00,67.3,12.9,17.72,NNW,332,0.0,0.0,12,0.00,,,0.00,WeatherTracker,2013-05-12 16:51:00,
2013-05-12 10:00:00,68.5,13.9,17.72,ESE,111,4.0,0.0,12,0.00,,,0.00,WeatherTracker,2013-05-12 17:00:00,
2013-05-12 10:06:00,68.7,14.1,17.72,South,172,2.0,0.0,12,0.00,,,0.00,WeatherTracker,2013-05-12 17:06:00,
2013-05-12 10:15:00,69.4,14.6,17.72,East,92,4.0,0.0,12,0.00,,,0.00,WeatherTracker,2013-05-12 17:15:00,
2013-05-12 10:21:00,69.3,10.4,17.72,East,79,5.0,5.0,10,0.00,,,0.00,WeatherTracker,2013-05-12 17:21:00,
2013-05-12 10:30:00,70.9,15.8,17.72,East,83,3.0,5.0,12,0.00,,,0.00,WeatherTracker,2013-05-12 17:30:00,
2013-05-12 10:36:00,70.7,9.1,17.72,WNW,286,3.0,4.0,9,0.00,,,0.00,WeatherTracker,2013-05-12 17:36:00,
2013-05-12 10:41:00,70.9,15.8,17.72,SSE,149,3.0,3.0,12,0.00,,,0.00,WeatherTracker,2013-05-12 17:41:00,
2013-05-12 10:46:00,71.4,9.7,17.72,ESE,113,3.0,3.0,9,0.00,,,0.00,WeatherTracker,2013-05-12 17:46:00,
2013-05-12 10:55:00,73.0,10.9,17.72,NE,52,2.0,5.0,9,0.00,,,0.00,WeatherTracker,2013-05-12 17:55:00,
2013-05-12 11:01:00,72.7,10.6,17.72,ENE,75,4.0,4.0,9,0.00,,,0.00,WeatherTracker,2013-05-12 18:01:00,
2013-05-12 11:06:00,72.9,10.8,17.72,NNW,335,3.0,3.0,9,0.00,,,0.00,WeatherTracker,2013-05-12 18:06:00,
2013-05-12 11:11:00,73.8,8.8,17.72,NNW,330,0.0,4.0,8,0.00,,,0.00,WeatherTracker,2013-05-12 18:11:00,
2013-05-12 11:20:00,73.8,8.8,17.72,NNE,22,2.0,3.0,8,0.00,,,0.00,WeatherTracker,2013-05-12 18:20:00,
2013-05-12 11:25:00,73.9,8.9,17.72,West,270,0.0,0.0,8,0.00,,,0.00,WeatherTracker,2013-05-12 18:25:00,
2013-05-12 11:31:00,73.4,8.5,17.72,NNW,340,2.0,0.0,8,0.00,,,0.00,WeatherTracker,2013-05-12 18:31:00,
2013-05-12 11:41:00,72.9,10.8,17.72,NW,317,4.0,8.0,9,0.00,,,0.00,WeatherTracker,2013-05-12 18:41:00,
2013-05-12 11:51:00,72.5,10.5,17.72,North,5,3.0,4.0,9,0.00,,,0.00,WeatherTracker,2013-05-12 18:51:00,
2013-05-12 11:56:00,73.4,8.5,17.72,WSW,242,4.0,4.0,8,0.00,,,0.00,WeatherTracker,2013-05-12 18:56:00,
2013-05-12 12:06:00,73.8,8.8,17.72,North,353,3.0,0.0,8,0.00,,,0.00,WeatherTracker,2013-05-12 19:06:00,
2013-05-12 12:16:00,73.8,8.8,17.72,ESE,102,3.0,3.0,8,0.00,,,0.00,WeatherTracker,2013-05-12 19:16:00,
2013-05-12 12:26:00,74.7,9.5,17.72,ESE,105,4.0,4.0,8,0.00,,,0.00,WeatherTracker,2013-05-12 19:26:00,
2013-05-12 12:31:00,75.4,10.0,17.72,ESE,108,3.0,5.0,8,0.00,,,0.00,WeatherTracker,2013-05-12 19:31:00,
2013-05-12 12:36:00,74.8,9.6,17.72,NE,55,2.0,4.0,8,0.00,,,0.00,WeatherTracker,2013-05-12 19:36:00,
2013-05-12 12:45:00,74.8,9.6,17.72,NNE,25,3.0,4.0,8,0.00,,,0.00,WeatherTracker,2013-05-12 19:45:00,
2013-05-12 12:51:00,75.4,10.0,17.72,SSE,162,2.0,0.0,8,0.00,,,0.00,WeatherTracker,2013-05-12 19:51:00,
2013-05-12 13:01:00,75.4,10.0,17.72,West,260,0.0,3.0,8,0.00,,,0.00,WeatherTracker,2013-05-12 20:01:00,
2013-05-12 13:10:00,75.9,10.4,17.72,NE,44,4.0,4.0,8,0.00,,,0.00,WeatherTracker,2013-05-12 20:10:00,
2013-05-12 13:16:00,75.7,10.3,17.72,East,85,4.0,4.0,8,0.00,,,0.00,WeatherTracker,2013-05-12 20:16:00,
2013-05-12 13:26:00,76.3,10.7,17.72,ESE,108,3.0,4.0,8,0.00,,,0.00,WeatherTracker,2013-05-12 20:26:00,
2013-05-12 13:31:00,77.0,11.2,17.72,SE,127,3.0,5.0,8,0.00,,,0.00,WeatherTracker,2013-05-12 20:31:00,
2013-05-12 13:36:00,77.4,11.5,17.72,SSW,192,4.0,0.0,8,0.00,,,0.00,WeatherTracker,2013-05-12 20:36:00,
2013-05-12 13:46:00,75.4,10.0,17.72,East,96,0.0,3.0,8,0.00,,,0.00,WeatherTracker,2013-05-12 20:46:00,
2013-05-12 13:51:00,74.8,9.6,17.72,North,357,0.0,0.0,8,0.00,,,0.00,WeatherTracker,2013-05-12 20:51:00,
2013-05-12 13:56:00,75.0,9.7,17.72,SE,136,2.0,6.0,8,0.00,,,0.00,WeatherTracker,2013-05-12 20:56:00,
2013-05-12 14:01:00,75.0,9.7,17.72,NNE,18,3.0,3.0,8,0.00,,,0.00,WeatherTracker,2013-05-12 21:01:00,
2013-05-12 14:06:00,74.5,9.3,17.72,WNW,299,2.0,3.0,8,0.00,,,0.00,WeatherTracker,2013-05-12 21:06:00,
2013-05-12 14:16:00,75.0,9.7,17.72,South,185,3.0,4.0,8,0.00,,,0.00,WeatherTracker,2013-05-12 21:16:00,
2013-05-12 14:26:00,74.5,9.3,17.72,NNW,340,4.0,4.0,8,0.00,,,0.00,WeatherTracker,2013-05-12 21:26:00,
2013-05-12 14:36:00,74.1,9.1,17.72,East,83,0.0,3.0,8,0.00,,,0.00,WeatherTracker,2013-05-12 21:36:00,
2013-05-12 14:46:00,73.9,8.9,17.72,ENE,76,0.0,3.0,8,0.00,,,0.00,WeatherTracker,2013-05-12 21:46:00,
2013-05-12 14:51:00,74.1,9.1,17.72,ESE,118,5.0,5.0,8,0.00,,,0.00,WeatherTracker,2013-05-12 21:51:00,
2013-05-12 14:56:00,74.3,9.2,17.72,South,169,3.0,3.0,8,0.00,,,0.00,WeatherTracker,2013-05-12 21:56:00,
2013-05-12 15:01:00,74.5,9.3,17.72,NNE,29,0.0,0.0,8,0.00,,,0.00,WeatherTracker,2013-05-12 22:01:00,
2013-05-12 15:11:00,73.8,8.8,17.72,ESE,118,3.0,5.0,8,0.00,,,0.00,WeatherTracker,2013-05-12 22:11:00,
2013-05-12 15:21:00,73.0,10.9,17.72,East,98,5.0,5.0,9,0.00,,,0.00,WeatherTracker,2013-05-12 22:21:00,
2013-05-12 15:26:00,73.0,10.9,17.72,South,188,3.0,3.0,9,0.00,,,0.00,WeatherTracker,2013-05-12 22:26:00,
2013-05-12 15:31:00,72.7,10.6,17.72,South,189,3.0,0.0,9,0.00,,,0.00,WeatherTracker,2013-05-12 22:31:00,
2013-05-12 15:36:00,72.5,10.5,17.72,North,353,3.0,3.0,9,0.00,,,0.00,WeatherTracker,2013-05-12 22:36:00,
2013-05-12 15:46:00,72.5,10.5,17.72,SE,131,0.0,0.0,9,0.00,,,0.00,WeatherTracker,2013-05-12 22:46:00,
2013-05-12 15:55:00,72.3,10.3,17.72,ESE,123,4.0,5.0,9,0.00,,,0.00,WeatherTracker,2013-05-12 22:55:00,
2013-05-12 16:01:00,72.3,10.3,17.72,West,281,3.0,4.0,9,0.00,,,0.00,WeatherTracker,2013-05-12 23:01:00,
2013-05-12 16:11:00,72.0,10.1,17.72,NW,313,3.0,3.0,9,0.00,,,0.00,WeatherTracker,2013-05-12 23:11:00,
2013-05-12 16:21:00,71.8,9.9,17.72,ENE,78,2.0,4.0,9,0.00,,,0.00,WeatherTracker,2013-05-12 23:21:00,
2013-05-12 16:26:00,71.8,9.9,17.72,SE,127,3.0,4.0,9,0.00,,,0.00,WeatherTracker,2013-05-12 23:26:00,
2013-05-12 16:31:00,71.6,9.8,17.72,SSE,161,3.0,4.0,9,0.00,,,0.00,WeatherTracker,2013-05-12 23:31:00,
2013-05-12 16:41:00,71.4,9.7,17.72,SSW,195,4.0,4.0,9,0.00,,,0.00,WeatherTracker,2013-05-12 23:41:00,
2013-05-12 16:46:00,71.2,9.5,17.72,South,178,3.0,3.0,9,0.00,,,0.00,WeatherTracker,2013-05-12 23:46:00,
2013-05-12 16:56:00,70.7,9.1,17.72,South,190,3.0,3.0,9,0.00,,,0.00,WeatherTracker,2013-05-12 23:56:00,
2013-05-12 17:01:00,70.5,9.0,17.72,South,191,3.0,0.0,9,0.00,,,0.00,WeatherTracker,2013-05-13 00:01:00,
2013-05-12 17:06:00,70.5,9.0,17.72,ESE,111,3.0,0.0,9,0.00,,,0.00,WeatherTracker,2013-05-13 00:06:00,
2013-05-12 17:11:00,70.7,9.1,17.72,NW,325,0.0,3.0,9,0.00,,,0.00,WeatherTracker,2013-05-13 00:11:00,
2013-05-12 17:16:00,70.7,9.1,17.72,SE,124,0.0,0.0,9,0.00,,,0.00,WeatherTracker,2013-05-13 00:16:00,
2013-05-12 17:26:00,70.7,9.1,17.72,SE,127,3.0,4.0,9,0.00,,,0.00,WeatherTracker,2013-05-13 00:26:00,
2013-05-12 17:31:00,70.5,9.0,17.72,North,353,3.0,3.0,9,0.00,,,0.00,WeatherTracker,2013-05-13 00:31:00,
2013-05-12 17:40:00,70.0,8.6,17.72,South,177,0.0,0.0,9,0.00,,,0.00,WeatherTracker,2013-05-13 00:40:00,
2013-05-12 17:46:00,69.8,8.4,17.72,ESE,116,3.0,3.0,9,0.00,,,0.00,WeatherTracker,2013-05-13 00:46:00,
2013-05-12 17:51:00,69.6,10.7,17.72,SSW,202,0.0,0.0,10,0.00,,,0.00,WeatherTracker,2013-05-13 00:51:00,
2013-05-12 17:56:00,69.4,10.5,17.72,NW,318,0.0,0.0,10,0.00,,,0.00,WeatherTracker,2013-05-13 00:56:00,
2013-05-12 18:06:00,69.1,10.2,17.72,SE,142,0.0,0.0,10,0.00,,,0.00,WeatherTracker,2013-05-13 01:06:00,
2013-05-12 18:16:00,68.7,10.0,17.72,NW,310,0.0,4.0,10,0.00,,,0.00,WeatherTracker,2013-05-13 01:16:00,
2013-05-12 18:21:00,68.5,9.8,17.72,WNW,286,2.0,5.0,10,0.00,,,0.00,WeatherTracker,2013-05-13 01:21:00,
2013-05-12 18:26:00,68.2,9.6,17.72,NW,304,0.0,0.0,10,0.00,,,0.00,WeatherTracker,2013-05-13 01:26:00,
2013-05-12 18:36:00,67.8,9.3,17.72,NNW,328,0.0,0.0,10,0.00,,,0.00,WeatherTracker,2013-05-13 01:36:00,
2013-05-12 18:41:00,67.5,9.0,17.72,North,353,0.0,0.0,10,0.00,,,0.00,WeatherTracker,2013-05-13 01:41:00,
2013-05-12 18:51:00,67.1,8.7,17.72,NW,325,0.0,0.0,10,0.00,,,0.00,WeatherTracker,2013-05-13 01:51:00,
2013-05-12 18:56:00,67.1,8.7,17.72,NNW,346,0.0,0.0,10,0.00,,,0.00,WeatherTracker,2013-05-13 01:56:00,
2013-05-12 19:01:00,66.6,8.3,17.72,NW,325,0.0,0.0,10,0.00,,,0.00,WeatherTracker,2013-05-13 02:01:00,
2013-05-12 19:06:00,66.4,8.2,17.72,NNW,338,0.0,0.0,10,0.00,,,0.00,WeatherTracker,2013-05-13 02:06:00,
2013-05-12 19:15:00,65.8,7.8,17.72,NNW,338,0.0,0.0,10,0.00,,,0.00,WeatherTracker,2013-05-13 02:15:00,
2013-05-12 19:21:00,65.7,7.6,17.72,NNW,338,0.0,0.0,10,0.00,,,0.00,WeatherTracker,2013-05-13 02:21:00,
2013-05-12 19:26:00,65.5,7.5,17.72,NNW,338,0.0,0.0,10,0.00,,,0.00,WeatherTracker,2013-05-13 02:26:00,
2013-05-12 19:31:00,65.1,7.2,17.72,NNW,338,0.0,0.0,10,0.00,,,0.00,WeatherTracker,2013-05-13 02:31:00,
2013-05-12 19:36:00,64.8,6.9,17.72,NNW,338,0.0,0.0,10,0.00,,,0.00,WeatherTracker,2013-05-13 02:36:00,
2013-05-12 19:45:00,63.9,8.3,17.72,NNW,338,0.0,0.0,11,0.00,,,0.00,WeatherTracker,2013-05-13 02:45:00,
2013-05-12 19:51:00,63.3,7.9,17.72,NNW,338,0.0,0.0,11,0.00,,,0.00,WeatherTracker,2013-05-13 02:51:00,
2013-05-12 20:01:00,62.8,7.5,17.72,NNW,338,0.0,0.0,11,0.00,,,0.00,WeatherTracker,2013-05-13 03:01:00,
2013-05-12 20:11:00,61.7,6.7,17.72,NNW,338,0.0,0.0,11,0.00,,,0.00,WeatherTracker,2013-05-13 03:11:00,
2013-05-12 20:16:00,61.3,6.4,17.72,NNW,338,0.0,0.0,11,0.00,,,0.00,WeatherTracker,2013-05-13 03:16:00,
2013-05-12 20:21:00,61.0,6.1,17.72,NNW,338,0.0,0.0,11,0.00,,,0.00,WeatherTracker,2013-05-13 03:21:00,
2013-05-12 20:31:00,60.3,7.5,17.72,NNW,338,0.0,0.0,12,0.00,,,0.00,WeatherTracker,2013-05-13 03:31:00,
2013-05-12 20:36:00,59.9,7.2,17.72,NNW,338,0.0,0.0,12,0.00,,,0.00,WeatherTracker,2013-05-13 03:36:00,
2013-05-12 20:45:00,59.2,6.6,17.72,NNW,338,0.0,0.0,12,0.00,,,0.00,WeatherTracker,2013-05-13 03:45:00,
2013-05-12 20:50:00,58.8,6.3,17.72,NNW,338,0.0,0.0,12,0.00,,,0.00,WeatherTracker,2013-05-13 03:50:00,
2013-05-12 20:55:00,58.3,5.9,17.72,NNW,338,0.0,0.0,12,0.00,,,0.00,WeatherTracker,2013-05-13 03:55:00,
2013-05-12 21:01:00,58.1,5.8,17.72,NNW,338,0.0,0.0,12,0.00,,,0.00,WeatherTracker,2013-05-13 04:01:00,
2013-05-12 21:11:00,57.6,5.4,17.72,NNW,338,0.0,0.0,12,0.00,,,0.00,WeatherTracker,2013-05-13 04:11:00,
2013-05-12 21:16:00,57.2,5.1,17.72,NNW,338,0.0,0.0,12,0.00,,,0.00,WeatherTracker,2013-05-13 04:16:00,
2013-05-12 21:21:00,56.8,4.8,17.72,NNW,338,0.0,0.0,12,0.00,,,0.00,WeatherTracker,2013-05-13 04:21:00,
2013-05-12 21:26:00,56.5,4.5,17.72,NNW,338,0.0,0.0,12,0.00,,,0.00,WeatherTracker,2013-05-13 04:26:00,
2013-05-12 21:31:00,55.9,4.1,17.72,NNW,338,0.0,0.0,12,0.00,,,0.00,WeatherTracker,2013-05-13 04:31:00,
2013-05-12 21:36:00,55.6,3.8,17.72,NNW,338,0.0,0.0,12,0.00,,,0.00,WeatherTracker,2013-05-13 04:36:00,
2013-05-12 21:41:00,54.9,5.0,17.72,NNW,338,0.0,0.0,13,0.00,,,0.00,WeatherTracker,2013-05-13 04:41:00,
2013-05-12 21:46:00,54.3,4.5,17.72,NNW,338,0.0,0.0,13,0.00,,,0.00,WeatherTracker,2013-05-13 04:46:00,
2013-05-12 21:56:00,53.8,4.1,17.72,NNW,338,0.0,0.0,13,0.00,,,0.00,WeatherTracker,2013-05-13 04:56:00,
2013-05-12 22:06:00,53.1,3.6,17.72,NNW,338,0.0,0.0,13,0.00,,,0.00,WeatherTracker,2013-05-13 05:06:00,
2013-05-12 22:11:00,52.9,3.4,17.72,NNW,338,0.0,0.0,13,0.00,,,0.00,WeatherTracker,2013-05-13 05:11:00,
2013-05-12 22:21:00,51.4,6.8,17.72,NNW,338,0.0,0.0,16,0.00,,,0.00,WeatherTracker,2013-05-13 05:21:00,
2013-05-12 22:26:00,51.1,6.5,17.72,NNW,338,0.0,0.0,16,0.00,,,0.00,WeatherTracker,2013-05-13 05:26:00,
2013-05-12 22:31:00,50.7,6.2,17.72,NNW,338,0.0,0.0,16,0.00,,,0.00,WeatherTracker,2013-05-13 05:31:00,
2013-05-12 22:36:00,50.4,5.9,17.72,NNW,338,0.0,0.0,16,0.00,,,0.00,WeatherTracker,2013-05-13 05:36:00,
2013-05-12 22:41:00,50.5,6.0,17.72,NNW,338,0.0,0.0,16,0.00,,,0.00,WeatherTracker,2013-05-13 05:41:00,
2013-05-12 22:51:00,50.4,5.9,17.72,NNW,338,0.0,0.0,16,0.00,,,0.00,WeatherTracker,2013-05-13 05:51:00,
2013-05-12 23:01:00,49.8,5.5,17.72,NNW,338,0.0,0.0,16,0.00,,,0.00,WeatherTracker,2013-05-13 06:01:00,
2013-05-12 23:11:00,49.3,5.0,17.72,NNW,338,0.0,0.0,16,0.00,,,0.00,WeatherTracker,2013-05-13 06:11:00,
2013-05-12 23:16:00,49.3,8.8,17.72,NNW,338,0.0,0.0,19,0.00,,,0.00,WeatherTracker,2013-05-13 06:16:00,
2013-05-12 23:21:00,49.3,8.8,17.72,NNW,338,0.0,0.0,19,0.00,,,0.00,WeatherTracker,2013-05-13 06:21:00,
2013-05-12 23:31:00,49.1,8.6,17.72,NNW,338,0.0,0.0,19,0.00,,,0.00,WeatherTracker,2013-05-13 06:31:00,
2013-05-12 23:41:00,48.7,8.3,17.72,NNW,338,0.0,0.0,19,0.00,,,0.00,WeatherTracker,2013-05-13 06:41:00,
2013-05-12 23:51:00,48.6,8.2,17.72,NNW,338,0.0,0.0,19,0.00,,,0.00,WeatherTracker,2013-05-13 06:51:00,
2013-05-12 23:56:00,48.2,7.9,17.72,NNW,338,0.0,0.0,19,0.00,,,0.00,WeatherTracker,2013-05-13 06:56:00,